Weather History for Beaumont, TX

Change the Weather History Date:

Sunday, February 2, 2014

  Actual Average Record
Temperature  
Mean Temperature 56 °F 54 °F  
Max Temperature 71 °F 63 °F 80 °F (1963)
Min Temperature 41 °F 44 °F 13 °F (1951)
Degree Days  
Heating Degree Days 9 12  
Month to date heating degree days 9 24  
Since 1 July heating degree days 1165 967  
Cooling Degree Days 0 0  
Month to date cooling degree days 1 0  
Year to date cooling degree days 1 11  
Growing Degree Days 6 (Base 50)    
Moisture  
Dew Point 54 °F    
Average Humidity 91    
Maximum Humidity 93    
Minimum Humidity 89    
Precipitation  
Precipitation 0.35 in 0.14 in 2.16 in (1959)
Month to date precipitation 0.35 0.29  
Year to date precipitation 1.62 5.55  
Snow  
Snow 0.00 in 0.00 in 0.70 in (1980)
Month to date snowfall 0.0 0.0  
Since 1 July snowfall 0.3 T  
Snow Depth 0.00 in    
Sea Level Pressure  
Sea Level Pressure 29.95 in    
Wind  
Wind Speed 13 mph (NE)    
Max Wind Speed 24 mph    
Max Gust Speed 30 mph    
Visibility 6 miles    
Events Fog , Rain    
T = Trace of Precipitation, MM = Missing Value Source: NWS Daily Summary

Daily Weather History Graph

Daily Weather History Graph

Search for Another Location

Airport:

Trip Planner

Search our weather history database for the weather conditions in past years. The results will help you decide how hot, cold, wet, or windy it might be!

Date:

Astronomy

Feb. 02, 2014 Rise Set
Actual Time 7:05 AM CST 5:54 PM CST
Civil Twilight 6:40 AM CST 6:19 PM CST
Nautical Twilight 6:12 AM CST 6:47 PM CST
Astronomical Twilight 5:43 AM CST 7:16 PM CST
Moon 8:50 AM CST (2/2) 9:19 PM CST (2/2)
Length of Visible Light 11h 38m
Length of Day
10h 48m
Waxing Crescent, 11% of the Moon is Illuminated
Feb 2
Waxing Crescent
Feb 6
First Quarter
Feb 14
Full
Feb 22
Last Quarter
Mar 1
New

Hourly Weather History & Observations

Time (CST) Temp. Windchill Dew Point Humidity Pressure Visibility Wind Dir Wind Speed Gust Speed Precip Events Conditions
12:35 AM 64.9 °F - 63.0 °F 93% 29.92 in 8.0 mi SE 11.5 mph - N/A   Overcast
12:53 AM 64.9 °F - 63.0 °F 93% 29.92 in 7.0 mi SE 10.4 mph - N/A   Overcast
1:53 AM 66.0 °F - 64.0 °F 93% 29.91 in 4.0 mi SSE 9.2 mph - N/A   Overcast
2:25 AM 66.0 °F - 64.0 °F 93% 29.91 in 2.5 mi SE 9.2 mph - N/A   Overcast
2:34 AM 66.0 °F - 64.0 °F 93% 29.91 in 4.0 mi SE 9.2 mph - N/A   Overcast
2:53 AM 66.0 °F - 64.0 °F 93% 29.91 in 5.0 mi SE 11.5 mph - N/A   Overcast
3:53 AM 64.9 °F - 63.0 °F 93% 29.90 in 5.0 mi ESE 6.9 mph - N/A   Overcast
4:15 AM 64.0 °F - 63.0 °F 96% 29.90 in 1.8 mi SE 5.8 mph - N/A   Overcast
4:24 AM 64.0 °F - 63.0 °F 96% 29.90 in 1.0 mi SE 6.9 mph - N/A   Mist
4:38 AM 64.0 °F - 63.0 °F 96% 29.90 in 2.0 mi ESE 6.9 mph - N/A   Overcast
4:49 AM 64.4 °F - 62.6 °F 94% 29.90 in 3.0 mi ESE 8.1 mph - N/A   Overcast
4:53 AM 64.0 °F - 63.0 °F 96% 29.90 in 4.0 mi ESE 9.2 mph - N/A   Overcast
5:53 AM 66.0 °F - 64.0 °F 93% 29.90 in 6.0 mi SE 11.5 mph - N/A   Overcast
6:53 AM 66.0 °F - 64.0 °F 93% 29.91 in 5.0 mi SE 12.7 mph - 0.00 in Rain Light Rain
7:01 AM 66.0 °F - 64.0 °F 93% 29.91 in 5.0 mi SE 9.2 mph - 0.00 in Rain Light Rain
7:49 AM 64.4 °F - 64.4 °F 100% 29.91 in 1.0 mi SE 9.2 mph - 0.00 in   Overcast
7:53 AM 64.9 °F - 64.0 °F 97% 29.91 in 0.5 mi SE 9.2 mph - 0.00 in Fog Fog
8:53 AM 66.0 °F - 64.0 °F 93% 29.92 in 6.0 mi ESE 8.1 mph - N/A   Overcast
9:53 AM 66.9 °F - 64.9 °F 93% 29.93 in 6.0 mi ESE 8.1 mph - 0.00 in Rain Light Rain
10:36 AM 68.0 °F - 66.9 °F 96% 29.92 in 1.2 mi SSE 9.2 mph - 0.11 in Rain Heavy Rain
10:53 AM 68.0 °F - 66.9 °F 96% 29.92 in 1.2 mi South 8.1 mph - 0.17 in Rain Rain
11:09 AM 69.1 °F - 66.9 °F 93% 29.91 in 2.0 mi SSE 10.4 mph - 0.01 in Rain Light Rain
11:18 AM 70.0 °F - 68.0 °F 93% 29.90 in 6.0 mi SSE 11.5 mph - 0.01 in Rain Light Rain
11:53 AM 69.1 °F - 68.0 °F 96% 29.89 in 2.0 mi SSE 10.4 mph - 0.01 in   Overcast
12:53 PM 71.1 °F - 68.0 °F 90% 29.85 in 2.0 mi South 16.1 mph - N/A   Overcast
1:45 PM 60.1 °F - 57.0 °F 90% 29.85 in 2.0 mi WNW 21.9 mph 27.6 mph 0.00 in   Overcast
1:53 PM 57.0 °F - 55.0 °F 93% 29.86 in 1.8 mi NW 18.4 mph 27.6 mph 0.05 in Rain Light Rain
1:55 PM 57.0 °F - 55.0 °F 93% 29.86 in 4.0 mi WNW 20.7 mph 26.5 mph 0.00 in Rain Light Rain
2:53 PM 52.0 °F - 48.9 °F 89% 29.89 in 6.0 mi NW 15.0 mph 25.3 mph 0.00 in Rain Light Rain
3:53 PM 48.9 °F - 46.9 °F 93% 29.91 in 2.0 mi NNW 16.1 mph - 0.00 in   Overcast
4:33 PM 48.0 °F - 45.0 °F 89% 29.93 in 7.0 mi NNW 12.7 mph - N/A   Overcast
4:40 PM 48.0 °F - 45.0 °F 89% 29.94 in 7.0 mi NW 13.8 mph - N/A   Overcast
4:53 PM 46.9 °F - 44.1 °F 90% 29.94 in 5.0 mi NNW 19.6 mph - 0.00 in Rain Light Rain
5:49 PM 46.4 °F 40.4 °F 44.6 °F 93% 29.95 in 10.0 mi NNW 13.8 mph 21.9 mph 0.00 in   Overcast
5:53 PM 46.0 °F 39.3 °F 43.0 °F 89% 29.96 in 10.0 mi NNW 16.1 mph 24.2 mph 0.00 in   Overcast
6:09 PM 46.0 °F 39.9 °F 43.0 °F 89% 29.96 in 10.0 mi NNW 13.8 mph 25.3 mph N/A   Overcast
6:30 PM 46.0 °F 38.5 °F 42.1 °F 86% 29.99 in 10.0 mi NNW 19.6 mph 24.2 mph 0.00 in Rain Light Rain
6:53 PM 45.0 °F 38.5 °F 43.0 °F 93% 30.00 in 5.0 mi NNW 13.8 mph 24.2 mph 0.06 in Rain Rain
7:07 PM 45.0 °F 38.9 °F 43.0 °F 93% 30.01 in 7.0 mi NNW 12.7 mph - 0.02 in Rain Light Rain
7:14 PM 45.0 °F 38.5 °F 43.0 °F 93% 30.03 in 10.0 mi NNW 13.8 mph - 0.03 in Rain Light Rain
7:27 PM 46.0 °F 39.6 °F 43.0 °F 89% 30.02 in 10.0 mi NNW 15.0 mph - 0.03 in Rain Light Rain
7:37 PM 46.0 °F 39.6 °F 43.0 °F 89% 30.02 in 7.0 mi NNW 15.0 mph - 0.03 in Rain Light Rain
7:44 PM 45.0 °F 37.9 °F 43.0 °F 93% 30.02 in 7.0 mi North 16.1 mph - 0.03 in Rain Light Rain
7:53 PM 45.0 °F 40.1 °F 43.0 °F 93% 30.04 in 7.0 mi NNW 9.2 mph 20.7 mph 0.03 in Rain Light Rain
8:53 PM 45.0 °F 37.9 °F 42.1 °F 90% 30.06 in 10.0 mi NNW 16.1 mph - 0.03 in   Overcast
9:35 PM 43.0 °F 35.4 °F 39.9 °F 89% 30.08 in 10.0 mi North 16.1 mph - N/A   Overcast
9:53 PM 43.0 °F 34.2 °F 39.9 °F 89% 30.09 in 10.0 mi North 20.7 mph 25.3 mph N/A   Overcast
10:53 PM 42.1 °F 34.2 °F 39.0 °F 89% 30.12 in 10.0 mi NNW 16.1 mph - N/A   Overcast
11:04 PM 42.1 °F 33.3 °F 39.0 °F 89% 30.11 in 10.0 mi NNW 19.6 mph 26.5 mph N/A   Overcast
11:53 PM 41.0 °F 32.5 °F 37.9 °F 89% 30.12 in 10.0 mi North 17.3 mph 25.3 mph N/A   Overcast